Flag for Germany Weather past 2 weeks in Hürth, North Rhine-Westphalia, Germany

Now
55 °F

Passing clouds.


Feels Like: 53 °F
Forecast: 52 / 66 °F
Wind: 10 mph from Southwest

Location: Noervenich

Current Time: Jul 8, 2015 at 7:30:34 AM

Latest Report: Jul 8, 2015 at 6:20 AM


Visibility: N/A

Pressure: 29.83 "Hg

Humidity: 82%

Dew point: 50 °F

Location of HürthLocation

Historic Weather in Hürth — Graph

°F

Hürth temperature yesterday

Maximum temperature yesterday: 88 °F (at 1:20 PM)
Minimum temperature yesterday: 57 °F (at 5:20 AM)
Average temperature yesterday: 71 °F

Past Weeks' High & Low Weather Summary

 TemperatureHumidityPressure
High99 °F (Jul 2, 4:20 PM)100% (Jun 27, 6:20 AM)30.24 "Hg (Jun 27, 6:20 AM)
Low50 °F (Jun 23, 6:20 AM)25% (Jun 30, 6:20 PM)29.74 "Hg (Jul 7, 7:20 PM)
Average71 °F63%30.08 "Hg
* Reported Jun 23 6:20 AM — Jul 8 6:20 AM, Hürth, Weather by CustomWeather, © 2015

Note: Actual official high and low records may vary slightly from our data, if they occured in-between our weather recording intervals... More about our weather records

Advertising

Hürth weather history for previous 24 hours

 ConditionsComfort  
Time TempWeatherWind HumidityBarometerVisibility
6:20 AM
Wed, Jul 8
55 °FPassing clouds.10 mph82%29.83 "HgN/A
5:20 AM55 °FPassing clouds.12 mph82%29.83 "HgN/A
4:20 AM55 °FPassing clouds.8 mph82%29.83 "HgN/A
3:20 AM57 °FPassing clouds.10 mph82%29.80 "HgN/A
2:20 AM59 °FPassing clouds.12 mph82%29.80 "HgN/A
1:20 AM59 °FPassing clouds.8 mph82%29.80 "HgN/A
12:20 AM63 °FPartly cloudy.20 mph94%29.80 "HgN/A
11:20 PM
Tue, Jul 7
66 °FPassing clouds.2 mph73%29.77 "HgN/A
10:20 PM68 °FScattered clouds.7 mph69%29.77 "HgN/A
9:20 PM72 °FPartly sunny.12 mph65%29.74 "HgN/A
8:20 PM73 °FPartly sunny.13 mph65%29.77 "HgN/A
7:20 PM72 °FPartly sunny.5 mph69%29.74 "HgN/A
6:20 PM70 °FPartly sunny.8 mph78%29.77 "HgN/A
5:20 PM72 °FSprinkles. Broken clouds.5 mph78%29.80 "HgN/A
5:00 PM72 °FBroken clouds.7 mph78%29.77 "HgN/A
4:20 PM79 °FSprinkles. Broken clouds.7 mph51%29.80 "HgN/A
3:20 PM84 °FPartly sunny.12 mph43%29.77 "HgN/A
2:20 PM86 °FPartly sunny.5 mph40%29.77 "HgN/A
1:20 PM88 °FPartly sunny.3 mph38%29.80 "HgN/A
12:20 PM86 °FBroken clouds.3 mph38%29.80 "HgN/A
11:20 AM84 °FScattered clouds.3 mph43%29.83 "HgN/A
10:20 AM79 °FPassing clouds.5 mph48%29.86 "HgN/A
9:20 AM73 °FPassing clouds.5 mph57%29.89 "HgN/A
8:20 AM66 °FPassing clouds.3 mph68%29.92 "HgN/A
7:20 AM64 °FPassing clouds.2 mph68%29.92 "HgN/A
Weather by CustomWeather, © 2015

See weather overviewHow to use our weather pages